[[{"header":{"parameterUnit":"m.s-1","parameterCategory":1,"la1":30.2991,"la2":30.254,"lo1":-89.0895,"lo2":-89.0444,"dy":0.0017,"dx":0.0017,"nx":28,"ny":28,"refTime":"2024-07-05T21:00:00:Z","depth":0,"parameterNumber":2,"parameterNumberName":"U-component_of_WINDS"},"data":[0,0,0,0,0,0,0,0,0,0,0,0,0,0,0,0,0,0,0,0,0,0,0,0,0,0,0,0,0,0,0,0,0,0,0,0,0,0,0,0,0,0,0,0,0,0,0,0,0,0,0,0,0,0,0,0,0,0,2.5651,2.5651,0,2.5669,2.5669,2.5669,2.5649,2.5648,2.5647,2.5647,2.5663,2.5664,2.5665,0,0,0,0,0,0,0,0,0,0,0,0,0,2.5597,2.5598,2.5651,2.5651,2.5651,2.5669,2.5669,2.5669,2.5649,2.5648,2.5647,2.5646,2.5663,2.5664,2.5665,0,0,0,0,0,0,0,0,0,0,0,0,0,2.5618,2.5599,2.5651,2.5643,2.5643,2.5669,2.5669,2.5669,2.5649,2.5648,2.5647,2.5646,2.5662,2.5664,2.5666,2.5699,0,0,2.5671,2.5672,0,0,0,0,0,0,0,0,2.5617,2.562,2.5644,2.5644,2.5643,2.5655,2.5656,2.5679,2.5649,2.5647,2.5647,2.5645,2.5661,2.5663,2.5669,2.57,2.57,2.5671,2.5672,2.5673,2.5673,0,0,0,0,0,0,0,2.5616,2.5619,2.5658,2.5644,2.5644,2.5638,2.564,2.566,2.566,2.5647,2.5645,2.5648,2.5661,2.5667,2.5669,2.5701,2.5671,2.5672,2.5673,2.5674,2.5759,2.576,0,0,0,0,0,0,2.5615,2.5618,2.5657,2.5658,2.5627,2.564,2.5642,2.5653,2.566,2.566,2.5649,2.5647,2.5665,2.5667,2.5669,2.5708,2.5673,2.5674,2.5675,2.5758,2.5759,2.5761,0,0,0,0,0,0,2.5614,2.5619,2.5656,2.5638,2.5642,2.5643,2.5654,2.5654,2.566,2.5661,2.5661,2.5655,2.5664,2.5667,2.5692,2.5708,2.5675,2.5677,2.5756,2.5758,2.576,2.5786,0,0,0,0,0,0,2.5613,2.5619,2.5632,2.5638,2.5643,2.5679,2.5655,2.5655,2.5663,2.5661,2.5667,2.5667,2.5663,2.5689,2.5693,2.571,2.5678,2.5755,2.5757,2.5759,2.5783,2.5788,2.5793,0,0,0,0,0,2.5611,2.5638,2.5632,2.5637,2.566,2.568,2.5682,2.5678,2.5665,2.5677,2.5678,2.5667,2.5706,2.5692,2.5696,2.5714,2.5754,2.5757,2.5759,2.5781,2.5787,2.5792,0,0,0,0,0,0,2.5632,2.5638,2.5633,2.5663,2.5671,2.5676,2.5692,2.5684,2.5696,2.5693,2.5686,2.5688,2.5714,2.5717,2.57,2.5746,2.5728,2.5732,2.5743,2.5749,2.5753,2.5751,2.5679,0,0,0,0,0,2.564,2.5657,2.5661,2.5687,2.5692,2.5692,2.57,2.5696,2.5704,2.5707,2.571,2.5718,2.5731,2.5741,2.5754,2.5785,2.5785,2.5799,2.5803,2.5807,2.581,2.5825,2.5831,2.577,2.577,2.577,0,0,2.5657,2.5663,2.5673,2.5692,2.5698,2.5714,2.5694,2.5713,2.5724,2.571,2.5733,2.5735,2.5744,2.5771,2.5784,2.5774,2.5827,2.5811,2.5814,2.5814,2.5829,2.5835,2.584,2.5772,2.5771,2.5771,0,0,2.5695,2.5702,2.5724,2.5731,2.5741,2.574,2.5746,2.5753,2.5754,2.5778,2.5767,2.5781,2.5805,2.5811,2.5817,2.586,2.585,2.5865,2.5887,2.5903,2.5907,2.5912,2.5925,2.593,2.5868,2.5868,2.5868,0,2.5714,2.5739,2.5736,2.5755,2.5763,2.5752,2.5774,2.5781,2.5794,2.5799,2.5789,2.582,2.5824,2.5853,2.5863,2.587,2.5874,2.5863,2.5907,2.5911,2.5915,2.5928,2.5933,2.5869,2.5869,2.5869,2.5869,0,2.5762,2.5779,2.5796,2.581,2.582,2.5841,2.584,2.5851,2.5846,2.5847,2.5871,2.5877,2.589,2.5897,2.5893,2.5925,2.5919,2.5908,2.5889,2.5923,2.5935,2.594,2.5872,2.5871,2.5871,2.587,0,0,2.5811,2.5824,2.583,2.5836,2.5847,2.586,2.588,2.5895,2.5903,2.5914,2.5929,2.5951,2.5941,2.5949,2.5945,2.5959,2.599,2.5946,2.5946,2.5953,2.6025,2.6031,2.6037,2.5985,2.5986,2.5987,2.6024,0,2.5848,2.5884,2.5882,2.5914,2.593,2.5921,2.5938,2.5946,2.5948,2.5961,2.5963,2.5978,2.5965,2.5969,2.5982,2.5984,2.6004,2.5981,2.5998,2.5999,2.5994,2.6044,2.605,2.6085,2.6029,2.6029,2.603,0,2.5896,2.5909,2.5943,2.5952,2.5958,2.5974,2.5987,2.6,2.6009,2.6009,2.6018,2.6013,2.6032,2.6015,2.6041,2.6025,2.6032,2.6034,2.6035,2.6035,2.6015,2.6042,2.6096,2.61,2.6038,2.6037,2.6036,0,2.5926,2.5952,2.5976,2.5982,2.5993,2.6004,2.6009,2.6017,2.6026,2.6038,2.6043,2.6057,2.6063,2.6074,2.6072,2.6059,2.6098,2.6081,2.6097,2.6097,2.6104,2.6103,2.6157,2.6112,2.6112,2.6112,2.6112,0,2.5967,2.5987,2.599,2.6004,2.6027,2.6025,2.6048,2.6052,2.606,2.6074,2.6067,2.6081,2.6078,2.6092,2.6091,2.6112,2.6115,2.6115,2.6114,2.6114,2.6114,2.6117,2.6114,2.6113,2.6113,2.6113,2.6113,0,2.6003,2.6006,2.6031,2.604,2.6043,2.606,2.6067,2.608,2.6082,2.6101,2.6105,2.6108,2.6123,2.6123,2.614,2.6139,2.6165,2.6162,2.6162,2.616,2.6177,2.6174,2.6233,2.624,2.6192,2.6193,2.6193,0,2.6028,2.6044,2.6055,2.6065,2.6071,2.6087,2.6096,2.6095,2.6105,2.6118,2.6129,2.6144,2.6156,2.6181,2.6184,2.6197,2.6194,2.6213,2.6195,2.6195,2.6192,2.619,2.6191,2.6216,2.6216,2.6217,2.6217,0,2.607,2.6071,2.6085,2.61,2.6112,2.6123,2.6134,2.6142,2.6143,2.6154,2.617,2.618,2.6198,2.6213,2.6226,2.623,2.6223,2.6223,2.6228,2.6227,2.6225,2.6225,2.6169,2.6221,2.6221,2.6221,2.622,2.622,2.61,2.6114,2.6124,2.614,2.6149,2.6159,2.6172,2.6176,2.619,2.6206,2.6205,2.6222,2.6231,2.6248,2.6254,2.6268,2.626,2.6267,2.6268,2.627,2.6271,2.6225,2.627,2.627,2.627,2.627,2.627,0,2.614,2.6147,2.6162,2.6178,2.6191,2.6186,2.6197,2.6208,2.6224,2.6234,2.6246,2.6264,2.6279,2.6284,2.6298,2.6307,2.6305,2.6311,2.6309,2.631,2.6277,2.6271,2.6313,2.6313,2.6313,2.6313,2.6313,2.6313,2.6163,2.6186,2.6188,2.6215,2.6221,2.6239,2.6246,2.6256,2.6263,2.6285,2.6297,2.6301,2.6309,2.6323,2.6336,2.6337,2.6342,2.6349,2.6348,2.6317,2.6312,2.6308,2.6302,2.635,2.635,2.638,2.638,2.638]},{"header":{"parameterUnit":"m.s-1","parameterCategory":1,"la1":30.2991,"la2":30.254,"lo1":-89.0895,"lo2":-89.0444,"dy":0.0017,"dx":0.0017,"nx":28,"ny":28,"refTime":"2024-07-05T21:00:00:Z","depth":0,"parameterNumber":3,"parameterNumberName":"V-component_of_WINDS"},"data":[0,0,0,0,0,0,0,0,0,0,0,0,0,0,0,0,0,0,0,0,0,0,0,0,0,0,0,0,0,0,0,0,0,0,0,0,0,0,0,0,0,0,0,0,0,0,0,0,0,0,0,0,0,0,0,0,0,0,4.0724,4.0725,0,4.0817,4.0818,4.0819,4.0872,4.0872,4.0872,4.0872,4.0959,4.0961,4.0963,0,0,0,0,0,0,0,0,0,0,0,0,0,4.0581,4.0584,4.0724,4.0725,4.0727,4.0817,4.0818,4.082,4.0872,4.0872,4.0872,4.0872,4.0958,4.0961,4.0964,0,0,0,0,0,0,0,0,0,0,0,0,0,4.0656,4.0585,4.0724,4.0764,4.0768,4.0817,4.0818,4.082,4.0871,4.0872,4.0872,4.0872,4.0958,4.0961,4.0964,4.0978,0,0,4.0974,4.0975,0,0,0,0,0,0,0,0,4.0651,4.0661,4.0757,4.0761,4.0766,4.0833,4.08,4.0873,4.0871,4.0832,4.0872,4.0872,4.0916,4.0923,4.094,4.0982,4.0986,4.0974,4.0976,4.0977,4.0978,0,0,0,0,0,0,0,4.0646,4.0657,4.0761,4.0758,4.0764,4.0773,4.0784,4.0814,4.0871,4.0835,4.0839,4.085,4.0919,4.0936,4.0942,4.0987,4.0974,4.0977,4.0979,4.098,4.1043,4.1043,0,0,0,0,0,0,4.0636,4.0652,4.0758,4.0764,4.0708,4.0776,4.0788,4.0811,4.0871,4.0881,4.085,4.0852,4.0931,4.0938,4.0945,4.0965,4.0977,4.098,4.0982,4.1043,4.1043,4.1043,0,0,0,0,0,0,4.0633,4.0645,4.0754,4.0709,4.0724,4.0778,4.0804,4.0813,4.0831,4.0882,4.0892,4.0858,4.0931,4.0941,4.097,4.0969,4.0982,4.0985,4.1044,4.1043,4.1043,4.1005,0,0,0,0,0,0,4.0628,4.0643,4.0652,4.0709,4.0726,4.078,4.0804,4.0815,4.0837,4.0841,4.0892,4.0901,4.0932,4.0965,4.0973,4.0973,4.0987,4.1044,4.1044,4.1043,4.1006,4.1003,4.1,0,0,0,0,0,4.0623,4.0636,4.0652,4.0665,4.0738,4.078,4.0789,4.0828,4.0837,4.0844,4.0877,4.0899,4.0967,4.0967,4.0977,4.0978,4.1044,4.1044,4.1043,4.1007,4.1004,4.1,0,0,0,0,0,0,4.0575,4.0644,4.0663,4.0696,4.0732,4.0788,4.0799,4.0822,4.0854,4.0857,4.09,4.0911,4.0935,4.0959,4.0958,4.0994,4.1008,4.1009,4.0977,4.0974,4.0971,4.0965,4.099,0,0,0,0,0,4.0569,4.06,4.0657,4.068,4.0697,4.0745,4.0764,4.0791,4.0829,4.0843,4.0878,4.0912,4.094,4.0959,4.0988,4.1009,4.102,4.1015,4.1012,4.1009,4.101,4.1021,4.1019,4.1041,4.1041,4.1041,0,0,4.0555,4.0597,4.0613,4.0671,4.0703,4.073,4.0757,4.0786,4.0806,4.0847,4.0877,4.0903,4.0943,4.0968,4.098,4.0989,4.1006,4.1008,4.1006,4.1008,4.102,4.1018,4.1016,4.1041,4.1041,4.1041,0,0,4.0545,4.058,4.0603,4.0633,4.0681,4.0712,4.0717,4.077,4.079,4.0821,4.0851,4.0874,4.0923,4.095,4.097,4.0967,4.0988,4.0975,4.0959,4.0969,4.0967,4.0966,4.0963,4.0962,4.0975,4.0975,4.0975,0,4.0521,4.0568,4.061,4.0638,4.0661,4.0701,4.0722,4.0748,4.0801,4.0815,4.0824,4.0886,4.0915,4.0946,4.0945,4.096,4.0965,4.0969,4.0965,4.0964,4.0963,4.0961,4.096,4.0973,4.0973,4.0973,4.0974,0,4.0536,4.0567,4.0578,4.0631,4.0656,4.0679,4.0722,4.0741,4.0764,4.0793,4.0822,4.0859,4.0896,4.0905,4.0928,4.0938,4.0942,4.0957,4.0972,4.0958,4.0957,4.0957,4.097,4.0971,4.0971,4.0972,0,0,4.05,4.0575,4.0578,4.0602,4.0656,4.0679,4.0702,4.0741,4.0755,4.0789,4.0808,4.0848,4.0862,4.0885,4.091,4.0919,4.0912,4.0933,4.0934,4.0927,4.0923,4.0911,4.091,4.0926,4.0926,4.0926,4.092,0,4.0497,4.0545,4.0583,4.0615,4.0643,4.0679,4.0699,4.0732,4.0759,4.0784,4.0812,4.0839,4.0857,4.087,4.0881,4.0911,4.0912,4.0911,4.0942,4.0942,4.0931,4.091,4.0898,4.0891,4.092,4.092,4.092,0,4.0501,4.0536,4.0571,4.0621,4.0633,4.0651,4.0688,4.0712,4.0749,4.0767,4.0791,4.0818,4.084,4.0853,4.0883,4.0882,4.0896,4.0912,4.0913,4.0917,4.093,4.0913,4.0889,4.0888,4.092,4.092,4.092,0,4.047,4.0525,4.0554,4.0573,4.0631,4.0642,4.0666,4.0703,4.0723,4.0754,4.0766,4.0798,4.0816,4.0838,4.0871,4.0877,4.0897,4.0913,4.0911,4.091,4.0914,4.0914,4.0892,4.0924,4.0924,4.0924,4.0924,0,4.0463,4.0483,4.0541,4.0558,4.058,4.0621,4.0641,4.0667,4.07,4.072,4.0753,4.077,4.0813,4.0835,4.086,4.088,4.0888,4.0902,4.0908,4.0899,4.0897,4.0909,4.091,4.0923,4.0923,4.0924,4.0924,0,4.0433,4.0473,4.0506,4.0558,4.0571,4.0585,4.0628,4.0644,4.0672,4.0697,4.0705,4.0748,4.0775,4.081,4.0848,4.0865,4.0882,4.0892,4.087,4.0874,4.087,4.087,4.0855,4.0855,4.0887,4.0886,4.0886,0,4.0427,4.0443,4.0497,4.0514,4.0538,4.0565,4.0585,4.0625,4.0644,4.0686,4.0696,4.0726,4.0753,4.0794,4.0826,4.0855,4.0865,4.0858,4.087,4.0859,4.0864,4.0863,4.0863,4.0855,4.0855,4.0854,4.0854,0,4.041,4.0428,4.0458,4.0494,4.0518,4.0547,4.0578,4.0589,4.0634,4.0653,4.0683,4.0703,4.0742,4.077,4.0802,4.0824,4.0845,4.085,4.0851,4.0842,4.0828,4.0834,4.0862,4.085,4.0851,4.0851,4.0851,4.0851,4.0391,4.0407,4.0447,4.0478,4.0505,4.0532,4.055,4.058,4.0606,4.0642,4.0662,4.069,4.0723,4.0769,4.0789,4.081,4.0818,4.0819,4.082,4.082,4.0816,4.0825,4.0815,4.0816,4.0816,4.0816,4.0816,0,4.0375,4.0402,4.0431,4.0473,4.0496,4.0517,4.055,4.0568,4.0593,4.0623,4.0648,4.068,4.0707,4.0742,4.077,4.078,4.079,4.0786,4.0785,4.0789,4.0808,4.0804,4.0777,4.0777,4.0777,4.0777,4.0777,4.0777,4.037,4.0397,4.0419,4.0458,4.0485,4.0514,4.0532,4.0555,4.058,4.0615,4.0638,4.0661,4.0691,4.0722,4.0747,4.0756,4.0764,4.0757,4.0769,4.0785,4.0788,4.0792,4.0788,4.0759,4.0759,4.0749,4.0749,4.0749]}]]